Weather History for Durant, OK

Change the Weather History Date:

Friday, November 30, 2012

  Actual Average (KADM) Record (KADM)
Temperature  
Mean Temperature 56 °F -  
Max Temperature 68 °F 57 °F 71 °F (1998)
Min Temperature 44 °F 39 °F 21 °F (2006)
Degree Days  
Heating Degree Days 9    
Growing Degree Days 6 (Base 50)    
Moisture  
Dew Point 52 °F    
Average Humidity 84    
Maximum Humidity 100    
Minimum Humidity 64    
Precipitation  
Precipitation 0.00 in - - ()
Sea Level Pressure  
Sea Level Pressure 30.09 in    
Wind  
Wind Speed 9 mph (SSE)    
Max Wind Speed 18 mph    
Max Gust Speed 23 mph    
Visibility 8 miles    
Events      
Averages and records for this station are not official NWS values.
T = Trace of Precipitation, MM = Missing Value Source: NWS Daily Summary

Daily Weather History Graph

Daily Weather History Graph

Search for Another Location

Airport:

Trip Planner

Search our weather history database for the weather conditions in past years. The results will help you decide how hot, cold, wet, or windy it might be!

Date:

Astronomy

Nov. 30, 2012 Rise Set
Actual Time 7:12 AM CST 5:16 PM CST
Civil Twilight 6:44 AM CST 5:43 PM CST
Nautical Twilight 6:14 AM CST 6:14 PM CST
Astronomical Twilight 5:43 AM CST 6:44 PM CST
Moon 7:11 PM CST (11/30) 8:45 AM CST (11/30)
Length of Visible Light 10h 58m
Length of Day
10h 04m
Waning Gibbous, 96% of the Moon is Illuminated
Nov 30
Waning Gibbous
Dec 6
Last Quarter
Dec 13
New
Dec 19
First Quarter
Dec 28
Full

Hourly Weather History & Observations

Time (CST) Temp. Windchill Dew Point Humidity Pressure Visibility Wind Dir Wind Speed Gust Speed Precip Events Conditions
12:15 AM 46.4 °F 42.9 °F 41.0 °F 81% 30.14 in 10.0 mi SE 6.9 mph - N/A   Clear
12:35 AM 46.4 °F 43.5 °F 41.0 °F 81% 30.14 in 10.0 mi SE 5.8 mph - N/A   Clear
12:55 AM 46.4 °F 43.5 °F 41.0 °F 81% 30.13 in 10.0 mi SE 5.8 mph - N/A   Clear
1:15 AM 46.4 °F 42.9 °F 41.0 °F 81% 30.12 in 10.0 mi SE 6.9 mph - N/A   Clear
1:35 AM 46.4 °F 43.5 °F 42.8 °F 87% 30.12 in 10.0 mi SSE 5.8 mph - N/A   Clear
1:55 AM 46.4 °F 42.4 °F 42.8 °F 87% 30.12 in 10.0 mi SE 8.1 mph - N/A   Clear
2:15 AM 46.4 °F 42.9 °F 42.8 °F 87% 30.12 in 10.0 mi SE 6.9 mph - N/A   Clear
2:35 AM 46.4 °F 42.9 °F 42.8 °F 87% 30.11 in 10.0 mi SE 6.9 mph - N/A   Clear
2:55 AM 46.4 °F 42.9 °F 42.8 °F 87% 30.11 in 10.0 mi SE 6.9 mph - N/A   Clear
3:15 AM 46.4 °F 43.5 °F 42.8 °F 87% 30.11 in 10.0 mi SE 5.8 mph - N/A   Clear
3:35 AM 44.6 °F 40.7 °F 42.8 °F 93% 30.11 in 10.0 mi SSE 6.9 mph - N/A   Clear
3:55 AM 44.6 °F 40.7 °F 42.8 °F 93% 30.10 in 10.0 mi SSE 6.9 mph - N/A   Clear
4:15 AM 44.6 °F 40.2 °F 44.6 °F 100% 30.10 in 10.0 mi SSE 8.1 mph - N/A   Clear
4:35 AM 46.4 °F 42.9 °F 44.6 °F 93% 30.11 in 10.0 mi SE 6.9 mph - N/A   Clear
4:55 AM 46.4 °F 42.4 °F 44.6 °F 93% 30.11 in 7.0 mi SE 8.1 mph - N/A   Clear
5:15 AM 46.4 °F 42.9 °F 42.8 °F 87% 30.11 in 7.0 mi SE 6.9 mph - N/A   Clear
5:35 AM 46.4 °F 42.9 °F 42.8 °F 87% 30.11 in 7.0 mi SSE 6.9 mph - N/A   Clear
5:55 AM 46.4 °F 42.9 °F 44.6 °F 93% 30.11 in 7.0 mi SE 6.9 mph - N/A   Clear
6:15 AM 44.6 °F 41.4 °F 42.8 °F 93% 30.11 in 7.0 mi SE 5.8 mph - N/A   Scattered Clouds
6:35 AM 46.4 °F 42.9 °F 44.6 °F 93% 30.12 in 7.0 mi SE 6.9 mph - N/A   Mostly Cloudy
6:55 AM 46.4 °F 42.9 °F 46.4 °F 100% 30.12 in 7.0 mi SSE 6.9 mph - N/A   Overcast
7:15 AM 50.0 °F - 46.4 °F 87% 30.12 in 7.0 mi SSE 5.8 mph - N/A   Overcast
7:35 AM 50.0 °F - 48.2 °F 94% 30.13 in 7.0 mi SSE 5.8 mph - N/A   Overcast
7:55 AM 51.8 °F - 50.0 °F 94% 30.13 in 5.0 mi SE 5.8 mph - N/A   Overcast
8:15 AM 51.8 °F - 50.0 °F 94% 30.14 in 5.0 mi SE 4.6 mph - N/A   Overcast
8:35 AM 51.8 °F - 51.8 °F 100% 30.14 in 5.0 mi SSE 4.6 mph - N/A   Overcast
8:55 AM 53.6 °F - 51.8 °F 94% 30.14 in 5.0 mi SSE 6.9 mph - N/A   Overcast
9:15 AM 55.4 °F - 53.6 °F 94% 30.15 in 7.0 mi South 6.9 mph - N/A   Overcast
9:35 AM 57.2 °F - 55.4 °F 94% 30.15 in 7.0 mi South 11.5 mph - N/A   Overcast
9:55 AM 60.8 °F - 55.4 °F 82% 30.15 in 7.0 mi South 16.1 mph - N/A   Overcast
10:15 AM 60.8 °F - 55.4 °F 82% 30.15 in 7.0 mi South 16.1 mph - N/A   Overcast
10:35 AM 62.6 °F - 55.4 °F 77% 30.14 in 7.0 mi South 13.8 mph - N/A   Overcast
11:15 AM 62.6 °F - 55.4 °F 77% 30.14 in 7.0 mi South 15.0 mph 18.4 mph N/A   Overcast
11:35 AM 62.6 °F - 57.2 °F 82% 30.13 in 7.0 mi South 15.0 mph 18.4 mph N/A   Overcast
11:55 AM 64.4 °F - 57.2 °F 77% 30.12 in 7.0 mi South 15.0 mph 20.7 mph N/A   Overcast
12:15 PM 64.4 °F - 57.2 °F 77% 30.10 in 10.0 mi South 16.1 mph - N/A   Overcast
12:35 PM 64.4 °F - 57.2 °F 77% 30.10 in 10.0 mi South 13.8 mph 21.9 mph N/A   Overcast
12:55 PM 66.2 °F - 57.2 °F 73% 30.09 in 10.0 mi South 13.8 mph - N/A   Overcast
1:15 PM 66.2 °F - 57.2 °F 73% 30.07 in 10.0 mi South 16.1 mph 21.9 mph N/A   Overcast
1:35 PM 68.0 °F - 55.4 °F 64% 30.06 in 10.0 mi South 17.3 mph 23.0 mph N/A   Overcast
1:55 PM 68.0 °F - 57.2 °F 68% 30.05 in 10.0 mi SSE 17.3 mph - N/A   Overcast
2:15 PM 68.0 °F - 57.2 °F 68% 30.05 in 10.0 mi South 16.1 mph 21.9 mph N/A   Overcast
2:35 PM 68.0 °F - 55.4 °F 64% 30.04 in 10.0 mi South 18.4 mph - N/A   Overcast
2:55 PM 68.0 °F - 57.2 °F 68% 30.04 in 10.0 mi South 18.4 mph 21.9 mph N/A   Overcast
3:15 PM 68.0 °F - 57.2 °F 68% 30.04 in 10.0 mi South 15.0 mph 21.9 mph N/A   Mostly Cloudy
3:35 PM 68.0 °F - 57.2 °F 68% 30.04 in 10.0 mi SSE 12.7 mph - N/A   Overcast
3:55 PM 68.0 °F - 57.2 °F 68% 30.05 in 10.0 mi SSE 10.4 mph - N/A   Overcast
4:15 PM 66.2 °F - 57.2 °F 73% 30.06 in 10.0 mi South 13.8 mph - N/A   Mostly Cloudy
4:35 PM 66.2 °F - 55.4 °F 68% 30.05 in 10.0 mi SSE 13.8 mph 18.4 mph N/A   Mostly Cloudy
4:55 PM 64.4 °F - 55.4 °F 73% 30.05 in 10.0 mi SSE 11.5 mph - N/A   Scattered Clouds
5:15 PM 64.4 °F - 55.4 °F 73% 30.05 in 10.0 mi South 12.7 mph - N/A   Clear
5:35 PM 62.6 °F - 55.4 °F 77% 30.05 in 10.0 mi SSE 10.4 mph - N/A   Scattered Clouds
5:55 PM 62.6 °F - 55.4 °F 77% 30.05 in 10.0 mi SE 8.1 mph - N/A   Clear
6:15 PM 60.8 °F - 55.4 °F 82% 30.04 in 10.0 mi SE 8.1 mph - N/A   Clear
6:35 PM 60.8 °F - 55.4 °F 82% 30.04 in 10.0 mi SE 10.4 mph - N/A   Clear
6:55 PM 60.8 °F - 55.4 °F 82% 30.04 in 7.0 mi SE 10.4 mph - N/A   Clear
7:15 PM 60.8 °F - 55.4 °F 82% 30.04 in 7.0 mi SE 9.2 mph - N/A   Clear
7:35 PM 60.8 °F - 57.2 °F 88% 30.04 in 7.0 mi SE 9.2 mph - N/A   Clear
7:55 PM 60.8 °F - 57.2 °F 88% 30.04 in 7.0 mi SE 9.2 mph - N/A   Clear
8:15 PM 59.0 °F - 57.2 °F 94% 30.05 in 7.0 mi SE 10.4 mph - N/A   Clear
8:35 PM 59.0 °F - 57.2 °F 94% 30.05 in 7.0 mi SE 10.4 mph - N/A   Clear
8:55 PM 60.8 °F - 57.2 °F 88% 30.05 in 7.0 mi SE 10.4 mph - N/A   Clear
9:15 PM 60.8 °F - 57.2 °F 88% 30.04 in 7.0 mi SSE 11.5 mph - N/A   Clear
9:35 PM 60.8 °F - 57.2 °F 88% 30.04 in 7.0 mi SSE 11.5 mph - N/A   Clear
9:55 PM 60.8 °F - 57.2 °F 88% 30.05 in 10.0 mi SSE 10.4 mph - N/A   Clear
10:15 PM 60.8 °F - 57.2 °F 88% 30.05 in 10.0 mi SSE 9.2 mph - N/A   Clear
10:35 PM 60.8 °F - 59.0 °F 94% 30.05 in 10.0 mi SSE 9.2 mph - N/A   Clear
10:55 PM 60.8 °F - 59.0 °F 94% 30.05 in 7.0 mi SSE 9.2 mph - N/A   Clear
11:15 PM 60.8 °F - 59.0 °F 94% 30.05 in 7.0 mi SSE 11.5 mph - N/A   Clear
11:35 PM 60.8 °F - 59.0 °F 94% 30.05 in 7.0 mi SSE 10.4 mph - N/A   Clear
11:55 PM 60.8 °F - 59.0 °F 94% 30.05 in 7.0 mi SSE 9.2 mph - N/A   Clear